,,,PA_Meas_PMT16A,,PR_Meas_QMR101_102,,RH_Meas_QMH101,,SR_Meas_QMS101,,TA_Meas_QMH101,,GenWind,,GenWind,
date,time,status,PA,status,PR,status,RH,status,SR,status,TA,status,DirAvg,status,SpdAvg,
2014-06-20, 00:00:04,VALID,1010.8,VALID,0,VALID,104,VALID,0,VALID,24.2981,VALID,158,VALID,0.703906,
2014-06-20, 00:01:04,VALID,1010.79,VALID,0,VALID,104,VALID,0,VALID,24.2981,VALID,157,VALID,0.973047,
2014-06-20, 00:02:04,VALID,1010.77,VALID,0,VALID,104,VALID,0,VALID,24.3389,VALID,150,VALID,0.512891,
2014-06-20, 00:03:04,VALID,1010.78,VALID,0,VALID,104,VALID,0,VALID,24.3176,VALID,150,VALID,0.561719,
2014-06-20, 00:04:04,VALID,1010.74,VALID,0,VALID,104,VALID,0,VALID,24.3194,VALID,150,VALID,0.414453,
2014-06-20, 00:05:04,VALID,1010.77,VALID,0,VALID,104,VALID,0,VALID,24.3389,VALID,150,VALID,0.346484,
2014-06-20, 00:06:04,VALID,1010.75,VALID,0,VALID,104,VALID,0,VALID,24.3176,VALID,154,VALID,0.981641,
2014-06-20, 00:07:04,VALID,1010.77,VALID,0,VALID,104,VALID,0,VALID,24.3389,VALID,157,VALID,0.688672,
2014-06-20, 00:08:04,VALID,1010.75,VALID,0,VALID,104,VALID,0,VALID,24.3371,VALID,157,VALID,0.769922,
2014-06-20, 00:09:04,VALID,1010.75,VALID,0,VALID,104,VALID,0,VALID,24.3389,VALID,157,VALID,0.757031,
2014-06-20, 00:10:04,VALID,1010.75,VALID,0,VALID,104,VALID,0,VALID,24.3584,VALID,157,VALID,0.335938,
2014-06-20, 00:11:04,VALID,1010.74,VALID,0,VALID,104,VALID,0,VALID,24.3389,VALID,167,VALID,0.99375,
2014-06-20, 00:12:04,VALID,1010.72,VALID,0,VALID,104,VALID,0,VALID,24.3176,VALID,167,VALID,0.941797,
2014-06-20, 00:13:04,VALID,1010.75,VALID,0,VALID,104,VALID,0,VALID,24.3584,VALID,149,VALID,0.814062,
2014-06-20, 00:14:04,VALID,1010.71,VALID,0,VALID,104,VALID,0,VALID,24.3371,VALID,149,VALID,0.951172,
2014-06-20, 00:15:04,VALID,1010.73,VALID,0,VALID,103.87,VALID,0,VALID,24.3584,VALID,149,VALID,0.562891,
2014-06-20, 00:16:04,VALID,1010.73,VALID,0,VALID,102.49,VALID,0,VALID,24.3584,VALID,149,VALID,1.21992,
2014-06-20, 00:17:04,VALID,1010.7,VALID,0,VALID,101.758,VALID,0,VALID,24.3566,VALID,149,VALID,0.842578,
2014-06-20, 00:18:04,VALID,1010.71,VALID,0,VALID,101.43,VALID,0,VALID,24.3566,VALID,149,VALID,1.01133,
2014-06-20, 00:19:04,VALID,1010.71,VALID,0,VALID,101.659,VALID,0,VALID,24.3566,VALID,149,VALID,0.555078,
2014-06-20, 00:20:04,VALID,1010.72,VALID,0,VALID,102.772,VALID,0,VALID,24.3761,VALID,149,VALID,0.359766,
2014-06-20, 00:21:04,VALID,1010.72,VALID,0,VALID,102.078,VALID,0,VALID,24.3779,VALID,149,VALID,0.780078,
2014-06-20, 00:22:04,VALID,1010.74,VALID,0,VALID,101.453,VALID,0,VALID,24.3779,VALID,149,VALID,0.931641,
2014-06-20, 00:23:04,VALID,1010.73,VALID,0,VALID,102.048,VALID,0,VALID,24.3779,VALID,149,VALID,0.464844,
2014-06-20, 00:24:04,VALID,1010.75,VALID,0,VALID,103.207,VALID,0,VALID,24.3566,VALID,149,VALID,0.370703,
2014-06-20, 00:25:04,VALID,1010.75,VALID,0,VALID,103.68,VALID,0.112112,VALID,24.3761,VALID,149,VALID,0.586719,
2014-06-20, 00:26:04,VALID,1010.76,VALID,0,VALID,104,VALID,0,VALID,24.3566,VALID,149,VALID,0.597656,
2014-06-20, 00:27:04,VALID,1010.72,VALID,0,VALID,104,VALID,0,VALID,24.3779,VALID,149,VALID,0.575391,
2014-06-20, 00:28:04,VALID,1010.73,VALID,0,VALID,104,VALID,0.112112,VALID,24.3566,VALID,149,VALID,1.21641,
2014-06-20, 00:29:04,VALID,1010.7,VALID,0,VALID,103.695,VALID,0.112112,VALID,24.3566,VALID,134,VALID,0.969922,
2014-06-20, 00:30:04,VALID,1010.7,VALID,0,VALID,102.048,VALID,0.112112,VALID,24.3566,VALID,138,VALID,1.3,
2014-06-20, 00:31:04,VALID,1010.69,VALID,0,VALID,101.415,VALID,0,VALID,24.3371,VALID,146,VALID,0.671094,
2014-06-20, 00:32:04,VALID,1010.7,VALID,0,VALID,101.994,VALID,0.112112,VALID,24.3566,VALID,144,VALID,0.832031,
2014-06-20, 00:33:04,VALID,1010.66,VALID,0,VALID,101.567,VALID,0,VALID,24.3352,VALID,145,VALID,1.32578,
2014-06-20, 00:34:04,VALID,1010.64,VALID,0,VALID,102.467,VALID,0.112112,VALID,24.3566,VALID,145,VALID,0.642187,
2014-06-20, 00:35:04,VALID,1010.62,VALID,0,VALID,103.741,VALID,0.112112,VALID,24.3158,VALID,145,VALID,0.665234,
2014-06-20, 00:36:04,VALID,1010.63,VALID,0,VALID,103.314,VALID,0.112112,VALID,24.3371,VALID,145,VALID,0.417969,
2014-06-20, 00:37:04,VALID,1010.59,VALID,0,VALID,103.215,VALID,0.112112,VALID,24.3371,VALID,145,VALID,1.12578,
2014-06-20, 00:38:04,VALID,1010.59,VALID,0,VALID,102.704,VALID,0,VALID,24.3371,VALID,145,VALID,0.653906,
2014-06-20, 00:39:04,VALID,1010.57,VALID,0,VALID,102.955,VALID,0,VALID,24.3176,VALID,119,VALID,0.567578,
2014-06-20, 00:40:04,VALID,1010.56,VALID,0,VALID,103.176,VALID,0,VALID,24.3389,VALID,119,VALID,0.442578,
2014-06-20, 00:41:04,VALID,1010.53,VALID,0,VALID,102.803,VALID,0,VALID,24.3,VALID,115,VALID,0.772656,
2014-06-20, 00:42:04,VALID,1010.54,VALID,0,VALID,103.504,VALID,0,VALID,24.2786,VALID,115,VALID,0.762109,
2014-06-20, 00:43:04,VALID,1010.51,VALID,0,VALID,104,VALID,0,VALID,24.2786,VALID,115,VALID,0.555469,
2014-06-20, 00:44:04,VALID,1010.51,VALID,0,VALID,104,VALID,0,VALID,24.261,VALID,110,VALID,1.23203,
2014-06-20, 00:45:04,VALID,1010.47,VALID,0,VALID,103.954,VALID,0,VALID,24.2396,VALID,104,VALID,0.988281,
2014-06-20, 00:46:04,VALID,1010.47,VALID,0,VALID,104,VALID,0,VALID,24.261,VALID,104,VALID,0.655469,
2014-06-20, 00:47:04,VALID,1010.45,VALID,0,VALID,104,VALID,0,VALID,24.2415,VALID,104,VALID,0.396484,
2014-06-20, 00:48:04,VALID,1010.43,VALID,0,VALID,104,VALID,0,VALID,24.2415,VALID,105,VALID,0.805859,
2014-06-20, 00:49:04,VALID,1010.41,VALID,0,VALID,104,VALID,0,VALID,24.2415,VALID,119,VALID,0.243359,
2014-06-20, 00:50:04,VALID,1010.39,VALID,0,VALID,104,VALID,0,VALID,24.2007,VALID,119,VALID,0.333594,
2014-06-20, 00:51:04,VALID,1010.33,VALID,0,VALID,104,VALID,0,VALID,24.222,VALID,119,VALID,0.620313,
2014-06-20, 00:52:04,VALID,1010.33,VALID,0,VALID,104,VALID,0,VALID,24.2025,VALID,119,VALID,0.978516,
2014-06-20, 00:53:04,VALID,1010.34,VALID,0,VALID,104,VALID,0,VALID,24.2025,VALID,119,VALID,0.508984,
2014-06-20, 00:54:04,VALID,1010.35,VALID,0,VALID,104,VALID,0,VALID,24.1635,VALID,119,VALID,0.460156,
2014-06-20, 00:55:04,VALID,1010.31,VALID,0,VALID,104,VALID,0.112112,VALID,24.1617,VALID,114,VALID,0.832031,
2014-06-20, 00:56:04,VALID,1010.29,VALID,0,VALID,104,VALID,0,VALID,24.1617,VALID,114,VALID,0.376563,
2014-06-20, 00:57:04,VALID,1010.25,VALID,0,VALID,104,VALID,0.112112,VALID,24.1422,VALID,114,VALID,0.498047,
2014-06-20, 00:58:04,VALID,1010.27,VALID,0,VALID,104,VALID,0,VALID,24.1209,VALID,114,VALID,0.612891,
2014-06-20, 00:59:04,VALID,1010.26,VALID,0,VALID,104,VALID,0,VALID,24.1422,VALID,114,VALID,0.409766,
2014-06-20, 01:00:04,VALID,1010.23,VALID,0,VALID,104,VALID,0.112112,VALID,24.1032,VALID,114,VALID,0.463281,
2014-06-20, 01:01:04,VALID,1010.22,VALID,0,VALID,104,VALID,0.112112,VALID,24.0819,VALID,117,VALID,0.722656,
2014-06-20, 01:02:04,VALID,1010.21,VALID,0,VALID,104,VALID,0.112112,VALID,24.0819,VALID,119,VALID,0.685547,
2014-06-20, 01:03:04,VALID,1010.2,VALID,0,VALID,104,VALID,0,VALID,24.0624,VALID,119,VALID,0.413672,
2014-06-20, 01:04:04,VALID,1010.2,VALID,0,VALID,104,VALID,0.112112,VALID,24.0837,VALID,119,VALID,0.939844,
2014-06-20, 01:05:04,VALID,1010.19,VALID,0,VALID,104,VALID,0.112112,VALID,24.0643,VALID,119,VALID,0.958594,
2014-06-20, 01:06:04,VALID,1010.18,VALID,0,VALID,104,VALID,0,VALID,24.0643,VALID,119,VALID,0.585547,
2014-06-20, 01:07:04,VALID,1010.16,VALID,0,VALID,104,VALID,0,VALID,24.0448,VALID,119,VALID,0.558594,
2014-06-20, 01:08:04,VALID,1010.14,VALID,0,VALID,104,VALID,0.112112,VALID,24.0235,VALID,119,VALID,0.420312,
2014-06-20, 01:09:04,VALID,1010.15,VALID,0,VALID,104,VALID,0.112112,VALID,24.0448,VALID,106,VALID,1.06445,
2014-06-20, 01:10:04,VALID,1010.18,VALID,0,VALID,104,VALID,0.112112,VALID,24.0448,VALID,103,VALID,0.678906,
2014-06-20, 01:11:04,VALID,1010.15,VALID,0,VALID,104,VALID,0,VALID,24.0448,VALID,103,VALID,1.09336,
2014-06-20, 01:12:04,VALID,1010.14,VALID,0,VALID,104,VALID,0,VALID,24.0448,VALID,108,VALID,0.732031,
2014-06-20, 01:13:04,VALID,1010.13,VALID,0,VALID,104,VALID,0.112112,VALID,24.0235,VALID,108,VALID,0.198828,
2014-06-20, 01:14:04,VALID,1010.16,VALID,0,VALID,104,VALID,0.112112,VALID,24.0253,VALID,108,VALID,0.298828,
2014-06-20, 01:15:04,VALID,1010.11,VALID,0,VALID,104,VALID,0.112112,VALID,24.004,VALID,108,VALID,0.237891,
2014-06-20, 01:16:04,VALID,1010.1,VALID,0,VALID,104,VALID,0.112112,VALID,24.004,VALID,108,VALID,0.212891,
2014-06-20, 01:17:04,VALID,1010.09,VALID,0,VALID,104,VALID,0.112112,VALID,23.9845,VALID,108,VALID,0.723437,
2014-06-20, 01:18:04,VALID,1010.07,VALID,0,VALID,104,VALID,0,VALID,23.9845,VALID,108,VALID,0.544922,
2014-06-20, 01:19:04,VALID,1010.07,VALID,0,VALID,104,VALID,0.112112,VALID,23.9845,VALID,108,VALID,0.144141,
2014-06-20, 01:20:04,VALID,1010.09,VALID,0,VALID,104,VALID,0,VALID,23.9863,VALID,108,VALID,0.228516,
2014-06-20, 01:21:04,VALID,1010.05,VALID,0,VALID,104,VALID,0,VALID,23.9668,VALID,108,VALID,0.441797,
2014-06-20, 01:22:04,VALID,1010.06,VALID,0,VALID,104,VALID,0.112112,VALID,23.9473,VALID,111,VALID,0.973047,
2014-06-20, 01:23:04,VALID,1010.03,VALID,0,VALID,104,VALID,0.112112,VALID,23.9668,VALID,102,VALID,0.527734,
2014-06-20, 01:24:04,VALID,1010.02,VALID,0,VALID,104,VALID,0,VALID,23.9473,VALID,102,VALID,0.3,
2014-06-20, 01:25:04,VALID,1009.99,VALID,0,VALID,104,VALID,0,VALID,23.9473,VALID,102,VALID,0.225781,
2014-06-20, 01:26:04,VALID,1009.98,VALID,0,VALID,104,VALID,0.112112,VALID,23.926,VALID,102,VALID,0.424219,
2014-06-20, 01:27:04,VALID,1009.98,VALID,0,VALID,104,VALID,0.112112,VALID,23.926,VALID,102,VALID,0.224609,
2014-06-20, 01:28:04,VALID,1009.96,VALID,0,VALID,104,VALID,0.112112,VALID,23.9278,VALID,102,VALID,0.416406,
2014-06-20, 01:29:04,VALID,1009.93,VALID,0,VALID,104,VALID,0,VALID,23.9065,VALID,102,VALID,0.371875,
2014-06-20, 01:30:04,VALID,1009.91,VALID,0,VALID,104,VALID,0.112112,VALID,23.9065,VALID,102,VALID,0.760156,
2014-06-20, 01:31:04,VALID,1009.88,VALID,0,VALID,104,VALID,0.112112,VALID,23.8871,VALID,102,VALID,0.2875,
2014-06-20, 01:32:04,VALID,1009.88,VALID,0,VALID,104,VALID,0.112112,VALID,23.8889,VALID,102,VALID,0.553125,
2014-06-20, 01:33:04,VALID,1009.89,VALID,0,VALID,104,VALID,0.112112,VALID,23.8676,VALID,102,VALID,0.385547,
2014-06-20, 01:34:04,VALID,1009.88,VALID,0,VALID,104,VALID,0.112112,VALID,23.8676,VALID,102,VALID,0.535547,
2014-06-20, 01:35:04,VALID,1009.84,VALID,0,VALID,104,VALID,0.112112,VALID,23.8481,VALID,102,VALID,0.462891,
2014-06-20, 01:36:04,VALID,1009.84,VALID,0,VALID,104,VALID,0.112112,VALID,23.8286,VALID,102,VALID,0.627344,
2014-06-20, 01:37:04,VALID,1009.83,VALID,0,VALID,104,VALID,0.112112,VALID,23.8091,VALID,102,VALID,0.546484,
2014-06-20, 01:38:04,VALID,1009.86,VALID,0,VALID,104,VALID,0.112112,VALID,23.8091,VALID,102,VALID,0.65,
2014-06-20, 01:39:04,VALID,1009.83,VALID,0,VALID,104,VALID,0.112112,VALID,23.8109,VALID,102,VALID,0.609375,
2014-06-20, 01:40:04,VALID,1009.81,VALID,0,VALID,104,VALID,0,VALID,23.7914,VALID,102,VALID,0.285156,
2014-06-20, 01:41:04,VALID,1009.8,VALID,0,VALID,104,VALID,0,VALID,23.7525,VALID,102,VALID,0.416406,
2014-06-20, 01:42:04,VALID,1009.83,VALID,0,VALID,104,VALID,0,VALID,23.772,VALID,102,VALID,0.166016,
2014-06-20, 01:43:04,VALID,1009.83,VALID,0,VALID,104,VALID,0,VALID,23.7525,VALID,102,VALID,0.261719,
2014-06-20, 01:44:04,VALID,1009.83,VALID,0,VALID,104,VALID,0,VALID,23.733,VALID,102,VALID,0.448047,
2014-06-20, 01:45:04,VALID,1009.82,VALID,0,VALID,104,VALID,0,VALID,23.733,VALID,102,VALID,0.175,
2014-06-20, 01:46:04,VALID,1009.84,VALID,0,INVALID,109.003,VALID,0,VALID,23.733,VALID,102,VALID,0.380078,
2014-06-20, 01:47:04,VALID,1009.85,VALID,0,INVALID,109.056,VALID,0,VALID,23.7348,VALID,102,VALID,0.155859,
2014-06-20, 01:48:04,VALID,1009.86,VALID,0,INVALID,109.086,VALID,0,VALID,23.7135,VALID,102,VALID,0,
2014-06-20, 01:49:04,VALID,1009.86,VALID,0,INVALID,109.155,VALID,0,VALID,23.7135,VALID,102,VALID,0,
2014-06-20, 01:50:04,VALID,1009.88,VALID,0,INVALID,109.155,VALID,0,VALID,23.694,VALID,102,VALID,0,
2014-06-20, 01:51:04,VALID,1009.86,VALID,0,INVALID,109.247,VALID,0,VALID,23.7153,VALID,102,VALID,0,
2014-06-20, 01:52:04,VALID,1009.85,VALID,0,INVALID,109.269,VALID,0,VALID,23.694,VALID,102,VALID,0,
2014-06-20, 01:53:04,VALID,1009.85,VALID,0,INVALID,109.292,VALID,0,VALID,23.6745,VALID,102,VALID,0,
2014-06-20, 01:54:04,VALID,1009.8,VALID,0,INVALID,109.376,VALID,0,VALID,23.6745,VALID,102,VALID,0,
2014-06-20, 01:55:04,VALID,1009.8,VALID,0,INVALID,109.407,VALID,0,VALID,23.6958,VALID,102,VALID,0,
2014-06-20, 01:56:04,VALID,1009.8,VALID,0,INVALID,109.452,VALID,0,VALID,23.6745,VALID,102,VALID,0,
2014-06-20, 01:57:04,VALID,1009.8,VALID,0,INVALID,109.506,VALID,0,VALID,23.6763,VALID,102,VALID,0,
2014-06-20, 01:58:04,VALID,1009.79,VALID,0,INVALID,109.574,VALID,0.112112,VALID,23.655,VALID,102,VALID,0,
2014-06-20, 01:59:04,VALID,1009.77,VALID,0,INVALID,109.597,VALID,0,VALID,23.655,VALID,102,VALID,0,
2014-06-20, 02:00:04,VALID,1009.75,VALID,0,INVALID,109.597,VALID,0,VALID,23.655,VALID,102,VALID,0,
2014-06-20, 02:01:04,VALID,1009.72,VALID,0,INVALID,109.613,VALID,0,VALID,23.6763,VALID,102,VALID,0,
2014-06-20, 02:02:04,VALID,1009.69,VALID,0,INVALID,109.552,VALID,0,VALID,23.6727,VALID,102,VALID,0,
2014-06-20, 02:03:04,VALID,1009.69,VALID,0,INVALID,109.483,VALID,0,VALID,23.694,VALID,102,VALID,0,
2014-06-20, 02:04:04,VALID,1009.68,VALID,0,INVALID,109.445,VALID,0.112112,VALID,23.6922,VALID,102,VALID,0,
2014-06-20, 02:05:04,VALID,1009.7,VALID,0,INVALID,109.43,VALID,0,VALID,23.733,VALID,102,VALID,0,
2014-06-20, 02:06:04,VALID,1009.69,VALID,0,INVALID,109.437,VALID,0,VALID,23.7543,VALID,102,VALID,0,
2014-06-20, 02:07:04,VALID,1009.71,VALID,0,INVALID,109.422,VALID,0,VALID,23.733,VALID,102,VALID,0,
2014-06-20, 02:08:04,VALID,1009.72,VALID,0,INVALID,109.338,VALID,0,VALID,23.7525,VALID,80,VALID,0,
2014-06-20, 02:09:04,VALID,1009.69,VALID,0,INVALID,109.315,VALID,0,VALID,23.772,VALID,80,VALID,0,
2014-06-20, 02:10:04,VALID,1009.73,VALID,0,INVALID,109.231,VALID,0,VALID,23.7525,VALID,80,VALID,0,
2014-06-20, 02:11:04,VALID,1009.72,VALID,0,INVALID,109.224,VALID,0,VALID,23.7525,VALID,80,VALID,0,
2014-06-20, 02:12:04,VALID,1009.73,VALID,0,INVALID,109.239,VALID,0,VALID,23.733,VALID,80,VALID,0,
2014-06-20, 02:13:04,VALID,1009.72,VALID,0,INVALID,109.239,VALID,0,VALID,23.7525,VALID,80,VALID,0,
2014-06-20, 02:14:04,VALID,1009.72,VALID,0,INVALID,109.17,VALID,0,VALID,23.733,VALID,80,VALID,0,
2014-06-20, 02:15:04,VALID,1009.69,VALID,0,INVALID,109.193,VALID,0,VALID,23.7525,VALID,80,VALID,0,
2014-06-20, 02:16:04,VALID,1009.69,VALID,0,INVALID,109.193,VALID,0,VALID,23.7525,VALID,80,VALID,0,
2014-06-20, 02:17:04,VALID,1009.69,VALID,0,INVALID,109.178,VALID,0,VALID,23.733,VALID,80,VALID,0,
2014-06-20, 02:18:04,VALID,1009.66,VALID,0,INVALID,109.262,VALID,0,VALID,23.7135,VALID,80,VALID,0,
2014-06-20, 02:19:04,VALID,1009.69,VALID,0,INVALID,109.3,VALID,0,VALID,23.7135,VALID,80,VALID,0,
2014-06-20, 02:20:04,VALID,1009.68,VALID,0,INVALID,109.346,VALID,0,VALID,23.6745,VALID,80,VALID,0,
2014-06-20, 02:21:04,VALID,1009.65,VALID,0,INVALID,109.414,VALID,0,VALID,23.6745,VALID,80,VALID,0,
2014-06-20, 02:22:04,VALID,1009.66,VALID,0,INVALID,109.468,VALID,0,VALID,23.6763,VALID,80,VALID,0,
2014-06-20, 02:23:04,VALID,1009.65,VALID,0,INVALID,109.491,VALID,0,VALID,23.655,VALID,80,VALID,0,
2014-06-20, 02:24:04,VALID,1009.63,VALID,0,INVALID,109.59,VALID,0,VALID,23.6763,VALID,80,VALID,0,
2014-06-20, 02:25:04,VALID,1009.63,VALID,0,INVALID,109.62,VALID,0.112112,VALID,23.6745,VALID,80,VALID,0,
2014-06-20, 02:26:04,VALID,1009.62,VALID,0,INVALID,109.651,VALID,0.112112,VALID,23.6745,VALID,80,VALID,0,
2014-06-20, 02:27:04,VALID,1009.61,VALID,0,INVALID,109.689,VALID,0.112112,VALID,23.6532,VALID,80,VALID,0,
2014-06-20, 02:28:04,VALID,1009.59,VALID,0,INVALID,109.719,VALID,0.112112,VALID,23.6532,VALID,80,VALID,0,
2014-06-20, 02:29:04,VALID,1009.62,VALID,0,INVALID,109.742,VALID,0.112112,VALID,23.6745,VALID,80,VALID,0,
2014-06-20, 02:30:04,VALID,1009.6,VALID,0,INVALID,109.757,VALID,0.112112,VALID,23.6532,VALID,80,VALID,0,
2014-06-20, 02:31:04,VALID,1009.57,VALID,0,INVALID,109.696,VALID,0.112112,VALID,23.694,VALID,80,VALID,0,
2014-06-20, 02:32:04,VALID,1009.57,VALID,0,INVALID,109.712,VALID,0.112112,VALID,23.7135,VALID,80,VALID,0,
2014-06-20, 02:33:04,VALID,1009.57,VALID,0,INVALID,109.735,VALID,0.112112,VALID,23.7135,VALID,80,VALID,0,
2014-06-20, 02:34:04,VALID,1009.52,VALID,0,INVALID,109.704,VALID,0,VALID,23.6922,VALID,80,VALID,0,
2014-06-20, 02:35:04,VALID,1009.53,VALID,0,INVALID,109.674,VALID,0.112112,VALID,23.6922,VALID,80,VALID,0,
2014-06-20, 02:36:04,VALID,1009.55,VALID,0,INVALID,109.628,VALID,0.112112,VALID,23.7135,VALID,80,VALID,0,
2014-06-20, 02:37:04,VALID,1009.53,VALID,0,INVALID,109.597,VALID,0.112112,VALID,23.6922,VALID,80,VALID,0,
2014-06-20, 02:38:04,VALID,1009.49,VALID,0,INVALID,109.582,VALID,0.112112,VALID,23.7135,VALID,80,VALID,0,
2014-06-20, 02:39:04,VALID,1009.5,VALID,0,INVALID,109.46,VALID,0.112112,VALID,23.6727,VALID,80,VALID,0,
2014-06-20, 02:40:04,VALID,1009.5,VALID,0,INVALID,109.468,VALID,0,VALID,23.694,VALID,80,VALID,0,
2014-06-20, 02:41:04,VALID,1009.49,VALID,0,INVALID,109.445,VALID,0,VALID,23.6745,VALID,80,VALID,0,
2014-06-20, 02:42:04,VALID,1009.45,VALID,0,INVALID,109.437,VALID,0,VALID,23.694,VALID,80,VALID,0,
2014-06-20, 02:43:04,VALID,1009.43,VALID,0,INVALID,109.483,VALID,0,VALID,23.7153,VALID,80,VALID,0,
2014-06-20, 02:44:04,VALID,1009.42,VALID,0,INVALID,109.475,VALID,0,VALID,23.6745,VALID,80,VALID,0,
2014-06-20, 02:45:04,VALID,1009.41,VALID,0,INVALID,109.483,VALID,0,VALID,23.6745,VALID,80,VALID,0,
2014-06-20, 02:46:04,VALID,1009.37,VALID,0,INVALID,109.498,VALID,0,VALID,23.6763,VALID,80,VALID,0,
2014-06-20, 02:47:04,VALID,1009.38,VALID,0,INVALID,109.491,VALID,0,VALID,23.6763,VALID,80,VALID,0,
2014-06-20, 02:48:04,VALID,1009.36,VALID,0,INVALID,109.529,VALID,0,VALID,23.655,VALID,80,VALID,0,
2014-06-20, 02:49:04,VALID,1009.32,VALID,0,INVALID,109.559,VALID,0,VALID,23.6568,VALID,80,VALID,0,
2014-06-20, 02:50:04,VALID,1009.31,VALID,0,INVALID,109.643,VALID,0,VALID,23.6356,VALID,80,VALID,0,
2014-06-20, 02:51:04,VALID,1009.33,VALID,0,INVALID,109.704,VALID,0,VALID,23.6373,VALID,80,VALID,0,
2014-06-20, 02:52:04,VALID,1009.31,VALID,0,INVALID,109.735,VALID,0,VALID,23.6373,VALID,80,VALID,0,
2014-06-20, 02:53:04,VALID,1009.31,VALID,0,INVALID,109.727,VALID,0,VALID,23.6179,VALID,80,VALID,0,
2014-06-20, 02:54:04,VALID,1009.31,VALID,0,INVALID,109.75,VALID,0,VALID,23.5984,VALID,80,VALID,0,
2014-06-20, 02:55:04,VALID,1009.31,VALID,0,INVALID,109.788,VALID,0,VALID,23.5771,VALID,80,VALID,0,
2014-06-20, 02:56:04,VALID,1009.3,VALID,0,INVALID,109.796,VALID,0,VALID,23.5576,VALID,80,VALID,0,
2014-06-20, 02:57:04,VALID,1009.32,VALID,0,INVALID,109.841,VALID,0,VALID,23.5789,VALID,80,VALID,0,
2014-06-20, 02:58:04,VALID,1009.33,VALID,0,INVALID,109.864,VALID,0,VALID,23.5789,VALID,80,VALID,0,
2014-06-20, 02:59:04,VALID,1009.35,VALID,0,INVALID,109.902,VALID,0,VALID,23.5576,VALID,80,VALID,0,
2014-06-20, 03:00:04,VALID,1009.33,VALID,0,INVALID,109.91,VALID,0,VALID,23.5381,VALID,80,VALID,0,
2014-06-20, 03:01:04,VALID,1009.33,VALID,0,INVALID,109.956,VALID,0,VALID,23.5399,VALID,80,VALID,0,
2014-06-20, 03:02:04,VALID,1009.32,VALID,0,INVALID,109.994,VALID,0,VALID,23.5204,VALID,80,VALID,0,
2014-06-20, 03:03:04,VALID,1009.32,VALID,0,INVALID,110.032,VALID,0,VALID,23.4992,VALID,80,VALID,0,
2014-06-20, 03:04:04,VALID,1009.3,VALID,0,INVALID,110.063,VALID,0,VALID,23.4797,VALID,80,VALID,0,
2014-06-20, 03:05:04,VALID,1009.28,VALID,0,INVALID,110.085,VALID,0,VALID,23.4602,VALID,80,VALID,0,
2014-06-20, 03:06:04,VALID,1009.23,VALID,0,INVALID,110.093,VALID,0,VALID,23.4815,VALID,80,VALID,0,
2014-06-20, 03:07:04,VALID,1009.23,VALID,0,INVALID,110.131,VALID,0,VALID,23.4602,VALID,80,VALID,0,
2014-06-20, 03:08:04,VALID,1009.2,VALID,0,INVALID,110.154,VALID,0,VALID,23.4602,VALID,80,VALID,0,
2014-06-20, 03:09:04,VALID,1009.18,VALID,0,INVALID,110.185,VALID,0,VALID,23.4407,VALID,80,VALID,0,
2014-06-20, 03:10:04,VALID,1009.17,VALID,0,INVALID,110.192,VALID,0,VALID,23.4602,VALID,80,VALID,0,
2014-06-20, 03:11:04,VALID,1009.18,VALID,0,INVALID,110.215,VALID,0,VALID,23.4425,VALID,80,VALID,0,
2014-06-20, 03:12:04,VALID,1009.16,VALID,0,INVALID,110.238,VALID,0,VALID,23.4407,VALID,80,VALID,0,
2014-06-20, 03:13:04,VALID,1009.18,VALID,0,INVALID,110.261,VALID,0,VALID,23.4425,VALID,80,VALID,0,
2014-06-20, 03:14:04,VALID,1009.19,VALID,0,INVALID,110.246,VALID,0,VALID,23.4407,VALID,80,VALID,0,
2014-06-20, 03:15:04,VALID,1009.19,VALID,0,INVALID,110.291,VALID,0,VALID,23.4407,VALID,80,VALID,0,
2014-06-20, 03:16:04,VALID,1009.21,VALID,0,INVALID,110.284,VALID,0,VALID,23.4425,VALID,80,VALID,0,
2014-06-20, 03:17:04,VALID,1009.21,VALID,0,INVALID,110.307,VALID,0.112112,VALID,23.4407,VALID,80,VALID,0,
2014-06-20, 03:18:04,VALID,1009.19,VALID,0,INVALID,110.291,VALID,0,VALID,23.4407,VALID,80,VALID,0,
2014-06-20, 03:19:04,VALID,1009.19,VALID,0,INVALID,110.307,VALID,0,VALID,23.4425,VALID,80,VALID,0,
2014-06-20, 03:20:04,VALID,1009.18,VALID,0,INVALID,110.307,VALID,0,VALID,23.4407,VALID,80,VALID,0,
2014-06-20, 03:21:04,VALID,1009.17,VALID,0,INVALID,110.299,VALID,0,VALID,23.4407,VALID,80,VALID,0,
2014-06-20, 03:22:04,VALID,1009.2,VALID,0,INVALID,110.314,VALID,0.112112,VALID,23.4212,VALID,80,VALID,0,
2014-06-20, 03:23:04,VALID,1009.17,VALID,0,INVALID,110.329,VALID,0,VALID,23.4425,VALID,80,VALID,0,
2014-06-20, 03:24:04,VALID,1009.2,VALID,0,INVALID,110.337,VALID,0,VALID,23.4212,VALID,80,VALID,0,
2014-06-20, 03:25:04,VALID,1009.23,VALID,0,INVALID,110.368,VALID,0,VALID,23.4212,VALID,80,VALID,0,
2014-06-20, 03:26:04,VALID,1009.23,VALID,0,INVALID,110.352,VALID,0.112112,VALID,23.4212,VALID,80,VALID,0,
2014-06-20, 03:27:04,VALID,1009.23,VALID,0,INVALID,110.36,VALID,0,VALID,23.4407,VALID,80,VALID,0,
2014-06-20, 03:28:04,VALID,1009.25,VALID,0,INVALID,110.36,VALID,0,VALID,23.4407,VALID,80,VALID,0,
2014-06-20, 03:29:04,VALID,1009.25,VALID,0,INVALID,110.39,VALID,0,VALID,23.4407,VALID,80,VALID,0,
2014-06-20, 03:30:04,VALID,1009.25,VALID,0,INVALID,110.39,VALID,0,VALID,23.4407,VALID,80,VALID,0,
2014-06-20, 03:31:04,VALID,1009.24,VALID,0,INVALID,110.368,VALID,0,VALID,23.4407,VALID,80,VALID,0,
2014-06-20, 03:32:04,VALID,1009.26,VALID,0,INVALID,110.375,VALID,0,VALID,23.462,VALID,80,VALID,0,
2014-06-20, 03:33:04,VALID,1009.25,VALID,0,INVALID,110.383,VALID,0,VALID,23.4407,VALID,80,VALID,0,
2014-06-20, 03:34:04,VALID,1009.26,VALID,0,INVALID,110.375,VALID,0,VALID,23.4425,VALID,80,VALID,0,
2014-06-20, 03:35:04,VALID,1009.23,VALID,0,INVALID,110.36,VALID,0,VALID,23.4212,VALID,80,VALID,0,
2014-06-20, 03:36:04,VALID,1009.23,VALID,0,INVALID,110.36,VALID,0,VALID,23.4212,VALID,80,VALID,0,
2014-06-20, 03:37:04,VALID,1009.23,VALID,0,INVALID,110.413,VALID,0,VALID,23.4017,VALID,80,VALID,0,
2014-06-20, 03:38:04,VALID,1009.24,VALID,0,INVALID,110.429,VALID,0,VALID,23.4017,VALID,80,VALID,0,
2014-06-20, 03:39:04,VALID,1009.23,VALID,0,INVALID,110.436,VALID,0,VALID,23.3823,VALID,80,VALID,0,
2014-06-20, 03:40:04,VALID,1009.25,VALID,0,INVALID,110.459,VALID,0,VALID,23.3628,VALID,80,VALID,0,
2014-06-20, 03:41:04,VALID,1009.25,VALID,0,INVALID,110.459,VALID,0,VALID,23.3628,VALID,80,VALID,0,
2014-06-20, 03:42:04,VALID,1009.28,VALID,0,INVALID,110.49,VALID,0,VALID,23.3628,VALID,80,VALID,0,
2014-06-20, 03:43:04,VALID,1009.29,VALID,0,INVALID,110.497,VALID,0,VALID,23.3433,VALID,80,VALID,0,
2014-06-20, 03:44:04,VALID,1009.31,VALID,0,INVALID,110.52,VALID,0,VALID,23.3238,VALID,80,VALID,0,
2014-06-20, 03:45:04,VALID,1009.31,VALID,0,INVALID,110.573,VALID,0,VALID,23.3451,VALID,80,VALID,0,
2014-06-20, 03:46:04,VALID,1009.3,VALID,0,INVALID,110.573,VALID,0.112112,VALID,23.3238,VALID,80,VALID,0,
2014-06-20, 03:47:04,VALID,1009.31,VALID,0,INVALID,110.612,VALID,0,VALID,23.3433,VALID,80,VALID,0,
2014-06-20, 03:48:04,VALID,1009.32,VALID,0,INVALID,110.619,VALID,0,VALID,23.3433,VALID,80,VALID,0,
2014-06-20, 03:49:04,VALID,1009.35,VALID,0,INVALID,110.665,VALID,0,VALID,23.3628,VALID,80,VALID,0,
2014-06-20, 03:50:04,VALID,1009.33,VALID,0,INVALID,110.68,VALID,0,VALID,23.384,VALID,80,VALID,0,